Flag for U.S.A. Weather past 2 weeks in Norwalk, California, U.S.A.

Now
69 °F

Clear.


Feels Like: 69 °F
Forecast: 66 / 81 °F
Wind: No wind

Location: Fullerton Municipal Airport

Current Time: Sep 20, 2014 at 2:59:38 AM

Latest Report: Sep 20, 2014 at 1:53 AM


Visibility: 10 mi

Pressure: 29.88 "Hg

Humidity: 76%

Dew point: 61 °F

Location of NorwalkLocation

Historic Weather in Norwalk — Graph

°F

Norwalk temperature yesterday

Maximum temperature yesterday: 82 °F (at 1:53 PM)
Minimum temperature yesterday: 69 °F (at 1:53 AM)
Average temperature yesterday: 74 °F

Past Weeks' High & Low Weather Summary

 TemperatureHumidityPressure
High104 °F (Sep 14, 2:53 PM)85% (Sep 5, 4:53 AM)29.91 "Hg (Sep 5, 4:53 AM)
Low65 °F (Sep 10, 6:53 AM)20% (Sep 9, 12:53 PM)29.66 "Hg (Sep 14, 2:53 PM)
Average80 °F54%29.79 "Hg
* Reported Sep 5 1:53 AM — Sep 20 1:53 AM, Norwalk, Weather by CustomWeather, © 2014

Note: Actual official high and low records may vary slightly from our data, if they occured in-between our weather recording intervals... More about our weather records

Advertising

Norwalk weather history for previous 24 hours

 ConditionsComfort  
Time TempWeatherWind HumidityBarometerVisibility
1:53 AM
Sep 20
69 °FClear.No wind76%29.88 "Hg10 mi
12:53 AM70 °FClear.No wind73%29.88 "Hg10 mi
11:53 PM
Sep 19
70 °FClear.No wind71%29.88 "Hg10 mi
10:53 PM71 °FClear.No wind68%29.87 "Hg10 mi
9:53 PM71 °FClear.3 mph71%29.86 "Hg10 mi
8:53 PM72 °FClear.5 mph68%29.85 "Hg10 mi
7:53 PM74 °FClear.3 mph64%29.83 "Hg10 mi
6:53 PM75 °FSunny.6 mph62%29.82 "Hg10 mi
5:53 PM77 °FSunny.6 mph56%29.81 "Hg10 mi
4:53 PM79 °FSunny.7 mph52%29.81 "Hg10 mi
3:53 PM81 °FSunny.9 mph47%29.81 "Hg10 mi
2:53 PM81 °FSunny.10 mph47%29.82 "Hg10 mi
1:53 PM82 °FSunny.9 mph46%29.84 "Hg10 mi
12:53 PM81 °FSunny.9 mph49%29.85 "Hg10 mi
11:53 AM79 °FScattered clouds.No wind50%29.88 "Hg10 mi
10:53 AM76 °FPartly sunny.3 mph58%29.89 "Hg10 mi
10:02 AM75 °FMostly cloudy.No wind62%29.90 "Hg10 mi
9:53 AM75 °FCloudy.5 mph62%29.90 "Hg10 mi
8:53 AM73 °FOvercast.5 mph69%29.90 "Hg10 mi
7:53 AM72 °FOvercast.No wind73%29.88 "Hg10 mi
6:53 AM71 °FOvercast.No wind76%29.87 "Hg10 mi
5:53 AM70 °FOvercast.No wind79%29.86 "Hg10 mi
4:53 AM71 °FOvercast.No wind76%29.86 "Hg10 mi
3:53 AM70 °FOvercast.No wind79%29.86 "Hg10 mi
2:53 AM70 °FMostly cloudy.No wind79%29.85 "Hg10 mi
Weather by CustomWeather, © 2014

See weather overviewHow to use our weather pages